TimeCST,TemperatureF,Dew PointF,Humidity,Sea Level PressureIn,VisibilityMPH,Wind Direction,Wind SpeedMPH,Gust SpeedMPH,PrecipitationIn,Events,Conditions,WindDirDegrees,DateUTC
12:53 AM,39.0,21.0,49,30.35,10.0,Calm,Calm,-,N/A,,Overcast,0,2013-01-23 06:53:00
1:53 AM,37.9,23.0,55,30.35,10.0,Calm,Calm,-,N/A,,Overcast,0,2013-01-23 07:53:00
2:53 AM,36.0,27.0,70,30.35,10.0,Calm,Calm,-,N/A,,Overcast,0,2013-01-23 08:53:00
3:53 AM,37.9,25.0,60,30.35,10.0,Calm,Calm,-,N/A,,Overcast,0,2013-01-23 09:53:00
4:53 AM,33.1,25.0,72,30.35,10.0,Calm,Calm,-,N/A,,Clear,0,2013-01-23 10:53:00
5:53 AM,32.0,24.1,73,30.36,10.0,Calm,Calm,-,N/A,,Clear,0,2013-01-23 11:53:00
6:53 AM,35.1,27.0,72,30.37,10.0,Calm,Calm,-,N/A,,Overcast,0,2013-01-23 12:53:00
7:53 AM,37.0,26.1,65,30.37,10.0,Calm,Calm,-,N/A,,Overcast,0,2013-01-23 13:53:00
8:53 AM,39.9,26.1,58,30.37,10.0,SSW,5.8,-,N/A,,Overcast,200,2013-01-23 14:53:00
9:53 AM,44.1,28.0,53,30.37,10.0,SSW,10.4,-,N/A,,Overcast,210,2013-01-23 15:53:00
10:53 AM,46.9,30.0,52,30.36,10.0,SSW,8.1,-,N/A,,Mostly Cloudy,200,2013-01-23 16:53:00
11:53 AM,46.0,30.9,56,30.31,10.0,SSW,9.2,-,N/A,,Overcast,200,2013-01-23 17:53:00
12:53 PM,46.9,32.0,56,30.28,10.0,South,5.8,-,N/A,,Overcast,190,2013-01-23 18:53:00
1:53 PM,48.9,33.1,54,30.26,10.0,SSW,6.9,-,N/A,,Overcast,200,2013-01-23 19:53:00
2:53 PM,52.0,35.1,53,30.24,10.0,South,6.9,-,N/A,,Scattered Clouds,190,2013-01-23 20:53:00
3:53 PM,52.0,36.0,54,30.23,10.0,South,8.1,-,N/A,,Clear,190,2013-01-23 21:53:00
4:53 PM,51.1,37.0,59,30.23,10.0,SSW,4.6,-,N/A,,Mostly Cloudy,200,2013-01-23 22:53:00
5:53 PM,46.0,37.0,71,30.23,10.0,South,4.6,-,N/A,,Clear,190,2013-01-23 23:53:00
6:53 PM,44.1,37.0,76,30.22,10.0,SSW,8.1,-,N/A,,Clear,210,2013-01-24 00:53:00
7:53 PM,43.0,36.0,76,30.22,10.0,SW,6.9,-,N/A,,Clear,220,2013-01-24 01:53:00
8:53 PM,43.0,37.0,80,30.22,10.0,Calm,Calm,-,N/A,,Partly Cloudy,0,2013-01-24 02:53:00
9:53 PM,44.1,37.0,76,30.22,10.0,SW,3.5,-,N/A,,Overcast,220,2013-01-24 03:53:00
10:53 PM,43.0,39.0,86,30.22,10.0,NE,3.5,-,N/A,,Overcast,40,2013-01-24 04:53:00
11:53 PM,43.0,37.9,82,30.22,10.0,Calm,Calm,-,N/A,,Mostly Cloudy,0,2013-01-24 05:53:00